This is the latest recevied weather packets stored in our database for station/object K6CED. If no packets are shown the sender has not sent any weather packets the latest 10 day(s).
| Time | Temp. | Humidity | Pressure | Rain* | Wind** | Luminosity | Snow |
|---|---|---|---|---|---|---|---|
| 1787672430 | 28.33° C | 47% | 1017.8 hPa | 0 mm | - | 366 W/m² | - |
| 1787672124 | 26.67° C | 51% | 1018.1 hPa | 0 mm | - | 346 W/m² | - |
| 1787671819 | 26.67° C | 47% | 1017.8 hPa | 0 mm | - | 326 W/m² | - |
| 1787671514 | 26.67° C | 53% | 1017.9 hPa | 0 mm | - | 307 W/m² | - |
| 1787671209 | 26.11° C | 58% | 1017.8 hPa | 0 mm | - | 289 W/m² | - |
| 1787670904 | 25.56° C | 58% | 1018 hPa | 0 mm | - | 269 W/m² | - |
| 1787670600 | 26.11° C | 58% | 1018 hPa | 0 mm | - | 248 W/m² | - |
| 1787670299 | 25.56° C | 59% | 1017.9 hPa | 0 mm | - | 230 W/m² | - |
| 1787669998 | 25.56° C | 57% | 1017.9 hPa | 0 mm | - | 213 W/m² | - |
| 1787669694 | 25.56° C | 58% | 1017.8 hPa | 0 mm | - | 202 W/m² | - |
| 1787669388 | 24.44° C | 55% | 1018 hPa | 0 mm | - | 184 W/m² | - |
| 1787669084 | 23.89° C | 56% | 1017.8 hPa | 0 mm | - | 169 W/m² | - |
| 1787668780 | 23.89° C | 56% | 1018 hPa | 0 mm | - | 154 W/m² | - |
| 1787668476 | 23.33° C | 57% | 1018 hPa | 0 mm | - | 139 W/m² | - |
| 1787668171 | 22.78° C | 57% | 1018 hPa | 0 mm | - | 124 W/m² | - |
| 1787667866 | 22.78° C | 59% | 1017.8 hPa | 0 mm | - | 104 W/m² | - |
| 1787667562 | 21.67° C | 61% | 1018 hPa | 0 mm | - | 91 W/m² | - |
| 1787667258 | 20.56° C | 63% | 1017.8 hPa | 0 mm | - | 57 W/m² | - |
| 1787666957 | 20° C | 65% | 1017.8 hPa | 0 mm | - | 55 W/m² | - |
| 1787666654 | 20° C | 67% | 1017.8 hPa | 0 mm | - | 36 W/m² | - |
| 1787666352 | 20° C | 68% | 1017.9 hPa | 0 mm | - | 34 W/m² | - |
| 1787666048 | 19.44° C | 68% | 1017.7 hPa | 0 mm | - | 30 W/m² | - |
| 1787665743 | 18.89° C | 69% | 1017.7 hPa | 0 mm | - | 27 W/m² | - |
| 1787665439 | 18.89° C | 71% | 1017.6 hPa | 0 mm | - | 23 W/m² | - |
| 1787665138 | 18.89° C | 70% | 1017.4 hPa | 0 mm | - | 19 W/m² | - |
* Rain latest hour (hover to see other rain measurements)
** Current wind speed in m/s (hover to see current wind gust speed)